Time,TemperatureF,DewpointF,PressureIn,WindDirection,WindDirectionDegrees,WindSpeedMPH,WindSpeedGustMPH,Humidity,HourlyPrecipIn,Conditions,Clouds,dailyrainin,SoftwareType,DateUTC
2013-02-03 00:03:00,42.1,32.4,30.15,WNW,293,1.0,4.0,68,0.00,,,0.00,meteohub,2013-02-03 06:03:00,
2013-02-03 00:08:00,42.1,32.4,30.15,West,261,3.0,5.0,68,0.00,,,0.00,meteohub,2013-02-03 06:08:00,
2013-02-03 00:13:00,41.7,32.4,30.15,WNW,286,4.0,5.0,69,0.00,,,0.00,meteohub,2013-02-03 06:13:00,
2013-02-03 00:18:00,41.5,32.2,30.15,West,274,1.0,5.0,69,0.00,,,0.00,meteohub,2013-02-03 06:18:00,
2013-02-03 00:23:00,41.5,32.2,30.15,WNW,290,4.0,5.0,69,0.00,,,0.00,meteohub,2013-02-03 06:23:00,
2013-02-03 00:28:00,41.4,32.4,30.15,WSW,241,3.0,6.0,70,0.00,,,0.00,meteohub,2013-02-03 06:28:00,
2013-02-03 00:33:00,41.2,32.2,30.15,West,270,2.0,6.0,70,0.00,,,0.00,meteohub,2013-02-03 06:33:00,
2013-02-03 00:38:00,41.0,32.0,30.16,NW,315,2.0,6.0,70,0.00,,,0.00,meteohub,2013-02-03 06:38:00,
2013-02-03 00:43:00,40.8,31.8,30.16,West,259,3.0,6.0,70,0.00,,,0.00,meteohub,2013-02-03 06:43:00,
2013-02-03 00:48:00,40.5,31.8,30.17,WSW,251,1.0,5.0,71,0.00,,,0.00,meteohub,2013-02-03 06:48:00,
2013-02-03 00:53:00,40.5,31.8,30.17,West,275,0.0,5.0,71,0.00,,,0.00,meteohub,2013-02-03 06:53:00,
2013-02-03 00:58:00,40.3,31.6,30.17,West,263,0.0,5.0,71,0.00,,,0.00,meteohub,2013-02-03 06:58:00,
2013-02-03 01:03:00,40.1,31.5,30.17,West,275,2.0,7.0,71,0.00,,,0.00,meteohub,2013-02-03 07:03:00,
2013-02-03 01:08:00,39.9,31.3,30.17,WSW,258,2.0,7.0,71,0.00,,,0.00,meteohub,2013-02-03 07:08:00,
2013-02-03 01:13:00,39.7,31.5,30.17,West,268,5.0,7.0,72,0.00,,,0.00,meteohub,2013-02-03 07:13:00,
2013-02-03 01:18:00,39.7,31.5,30.17,SW,221,2.0,7.0,72,0.00,,,0.00,meteohub,2013-02-03 07:18:00,
2013-02-03 01:23:00,39.6,31.3,30.17,WSW,249,2.0,7.0,72,0.00,,,0.00,meteohub,2013-02-03 07:23:00,
2013-02-03 01:28:00,39.6,31.3,30.17,West,275,5.0,7.0,72,0.00,,,0.00,meteohub,2013-02-03 07:28:00,
2013-02-03 01:33:00,39.6,30.9,30.17,WSW,247,3.0,7.0,71,0.00,,,0.00,meteohub,2013-02-03 07:33:00,
2013-02-03 01:38:00,39.6,30.9,30.17,NW,304,9.0,9.0,71,0.00,,,0.00,meteohub,2013-02-03 07:38:00,
2013-02-03 01:43:00,39.6,30.9,30.17,WNW,289,4.0,8.0,71,0.00,,,0.00,meteohub,2013-02-03 07:43:00,
2013-02-03 01:48:00,39.6,30.9,30.17,WNW,283,5.0,11.0,71,0.00,,,0.00,meteohub,2013-02-03 07:48:00,
2013-02-03 01:54:00,39.6,30.6,30.18,WNW,291,10.0,11.0,70,0.00,,,0.00,meteohub,2013-02-03 07:54:00,
2013-02-03 01:59:00,39.6,30.6,30.18,WNW,297,9.0,10.0,70,0.00,,,0.00,meteohub,2013-02-03 07:59:00,
2013-02-03 02:04:00,39.4,30.4,30.18,WSW,249,7.0,11.0,70,0.00,,,0.00,meteohub,2013-02-03 08:04:00,
2013-02-03 02:09:00,39.2,30.2,30.18,NW,325,4.0,11.0,70,0.00,,,0.00,meteohub,2013-02-03 08:09:00,
2013-02-03 02:14:00,39.4,30.0,30.18,NW,323,5.0,13.0,69,0.00,,,0.00,meteohub,2013-02-03 08:14:00,
2013-02-03 02:18:00,39.6,29.8,30.18,WNW,292,5.0,15.0,68,0.00,,,0.00,meteohub,2013-02-03 08:18:00,
2013-02-03 02:24:00,39.6,29.5,30.18,NW,313,3.0,15.0,67,0.00,,,0.00,meteohub,2013-02-03 08:24:00,
2013-02-03 02:29:00,39.6,29.1,30.18,NW,326,7.0,15.0,66,0.00,,,0.00,meteohub,2013-02-03 08:29:00,
2013-02-03 02:34:00,39.6,29.1,30.19,WNW,295,9.0,13.0,66,0.00,,,0.00,meteohub,2013-02-03 08:34:00,
2013-02-03 02:38:00,39.4,28.9,30.19,NW,308,4.0,12.0,66,0.00,,,0.00,meteohub,2013-02-03 08:38:00,
2013-02-03 02:43:00,39.4,28.9,30.19,NW,325,11.0,12.0,66,0.00,,,0.00,meteohub,2013-02-03 08:43:00,
2013-02-03 02:49:00,39.4,28.6,30.19,WNW,300,4.0,16.0,65,0.00,,,0.00,meteohub,2013-02-03 08:49:00,
2013-02-03 02:54:00,39.4,28.6,30.19,WNW,286,6.0,16.0,65,0.00,,,0.00,meteohub,2013-02-03 08:54:00,
2013-02-03 02:59:00,39.6,28.8,30.19,NW,312,5.0,16.0,65,0.00,,,0.00,meteohub,2013-02-03 08:59:00,
2013-02-03 03:04:00,39.6,28.4,30.19,WNW,302,11.0,17.0,64,0.00,,,0.00,meteohub,2013-02-03 09:04:00,
2013-02-03 03:09:00,39.6,28.8,30.19,NW,312,11.0,17.0,65,0.00,,,0.00,meteohub,2013-02-03 09:09:00,
2013-02-03 03:14:00,39.6,28.8,30.19,NW,311,7.0,17.0,65,0.00,,,0.00,meteohub,2013-02-03 09:14:00,
2013-02-03 03:19:00,39.6,28.8,30.19,WNW,284,10.0,17.0,65,0.00,,,0.00,meteohub,2013-02-03 09:19:00,
2013-02-03 03:24:00,39.6,28.8,30.20,West,279,10.0,16.0,65,0.00,,,0.00,meteohub,2013-02-03 09:24:00,
2013-02-03 03:29:00,39.6,28.8,30.19,NW,310,10.0,18.0,65,0.00,,,0.00,meteohub,2013-02-03 09:29:00,
2013-02-03 03:34:00,39.4,28.9,30.19,NW,311,17.0,18.0,66,0.00,,,0.00,meteohub,2013-02-03 09:34:00,
2013-02-03 03:39:00,39.4,28.6,30.19,NW,315,14.0,17.0,65,0.00,,,0.00,meteohub,2013-02-03 09:39:00,
2013-02-03 03:44:00,39.4,28.9,30.19,NW,325,7.0,17.0,66,0.00,,,0.00,meteohub,2013-02-03 09:44:00,
2013-02-03 03:49:00,39.2,28.8,30.19,NW,322,5.0,17.0,66,0.00,,,0.00,meteohub,2013-02-03 09:49:00,
2013-02-03 03:54:00,39.0,28.6,30.19,NNW,331,11.0,16.0,66,0.00,,,0.00,meteohub,2013-02-03 09:54:00,
2013-02-03 03:59:00,38.8,28.4,30.20,NW,314,5.0,16.0,66,0.00,,,0.00,meteohub,2013-02-03 09:59:00,
2013-02-03 04:04:00,38.7,28.6,30.20,WNW,288,7.0,16.0,67,0.00,,,0.00,meteohub,2013-02-03 10:04:00,
2013-02-03 04:09:00,38.3,27.9,30.20,WNW,291,7.0,15.0,66,0.00,,,0.00,meteohub,2013-02-03 10:09:00,
2013-02-03 04:14:00,38.1,28.2,30.21,West,271,5.0,12.0,67,0.00,,,0.00,meteohub,2013-02-03 10:14:00,
2013-02-03 04:19:00,37.9,28.0,30.21,WNW,298,3.0,13.0,67,0.00,,,0.00,meteohub,2013-02-03 10:19:00,
2013-02-03 04:24:00,37.8,28.2,30.20,West,279,4.0,13.0,68,0.00,,,0.00,meteohub,2013-02-03 10:24:00,
2013-02-03 04:29:00,37.6,28.0,30.21,WNW,294,3.0,13.0,68,0.00,,,0.00,meteohub,2013-02-03 10:29:00,
2013-02-03 04:34:00,37.4,28.2,30.21,NW,321,5.0,12.0,69,0.00,,,0.00,meteohub,2013-02-03 10:34:00,
2013-02-03 04:39:00,37.2,28.0,30.21,WNW,294,5.0,12.0,69,0.00,,,0.00,meteohub,2013-02-03 10:39:00,
2013-02-03 04:44:00,37.0,27.9,30.21,WNW,290,4.0,12.0,69,0.00,,,0.00,meteohub,2013-02-03 10:44:00,
2013-02-03 04:49:00,36.9,28.0,30.21,NW,322,3.0,10.0,70,0.00,,,0.00,meteohub,2013-02-03 10:49:00,
2013-02-03 04:54:00,36.7,27.9,30.21,NW,310,4.0,12.0,70,0.00,,,0.00,meteohub,2013-02-03 10:54:00,
2013-02-03 04:59:00,36.5,27.7,30.21,NW,306,6.0,12.0,70,0.00,,,0.00,meteohub,2013-02-03 10:59:00,
2013-02-03 05:04:00,36.3,27.9,30.22,NW,307,9.0,10.0,71,0.00,,,0.00,meteohub,2013-02-03 11:04:00,
2013-02-03 05:09:00,36.3,27.9,30.22,NW,321,5.0,10.0,71,0.00,,,0.00,meteohub,2013-02-03 11:09:00,
2013-02-03 05:14:00,36.3,27.9,30.22,NW,321,3.0,11.0,71,0.00,,,0.00,meteohub,2013-02-03 11:14:00,
2013-02-03 05:19:00,36.1,27.7,30.22,NW,308,1.0,12.0,71,0.00,,,0.00,meteohub,2013-02-03 11:19:00,
2013-02-03 05:24:00,36.1,28.0,30.22,NW,321,5.0,12.0,72,0.00,,,0.00,meteohub,2013-02-03 11:24:00,
2013-02-03 05:29:00,36.0,27.5,30.22,NW,306,5.0,10.0,71,0.00,,,0.00,meteohub,2013-02-03 11:29:00,
2013-02-03 05:34:00,35.8,27.7,30.22,NW,326,1.0,9.0,72,0.00,,,0.00,meteohub,2013-02-03 11:34:00,
2013-02-03 05:39:00,35.8,27.7,30.22,NW,313,2.0,8.0,72,0.00,,,0.00,meteohub,2013-02-03 11:39:00,
2013-02-03 05:45:00,35.8,27.7,30.22,NW,309,0.0,8.0,72,0.00,,,0.00,meteohub,2013-02-03 11:45:00,
2013-02-03 05:50:00,35.4,27.7,30.22,WNW,287,1.0,5.0,73,0.00,,,0.00,meteohub,2013-02-03 11:50:00,
2013-02-03 05:55:00,35.2,27.5,30.23,WNW,288,3.0,4.0,73,0.00,,,0.00,meteohub,2013-02-03 11:55:00,
2013-02-03 06:00:00,35.1,27.3,30.23,WNW,286,1.0,6.0,73,0.00,,,0.00,meteohub,2013-02-03 12:00:00,
2013-02-03 06:05:00,34.9,27.5,30.23,WNW,284,2.0,6.0,74,0.00,,,0.00,meteohub,2013-02-03 12:05:00,
2013-02-03 06:10:00,34.5,27.1,30.23,WNW,298,2.0,6.0,74,0.00,,,0.00,meteohub,2013-02-03 12:10:00,
2013-02-03 06:15:00,34.5,27.1,30.23,WNW,288,1.0,6.0,74,0.00,,,0.00,meteohub,2013-02-03 12:15:00,
2013-02-03 06:20:00,34.3,27.3,30.23,WNW,292,1.0,6.0,75,0.00,,,0.00,meteohub,2013-02-03 12:20:00,
2013-02-03 06:25:00,34.2,27.1,30.23,WNW,294,2.0,5.0,75,0.00,,,0.00,meteohub,2013-02-03 12:25:00,
2013-02-03 06:30:00,34.2,27.1,30.23,West,278,2.0,5.0,75,0.00,,,0.00,meteohub,2013-02-03 12:30:00,
2013-02-03 06:35:00,34.0,27.0,30.24,WNW,292,0.0,5.0,75,0.00,,,0.00,meteohub,2013-02-03 12:35:00,
2013-02-03 06:40:00,34.0,27.1,30.24,WNW,302,2.0,5.0,76,0.00,,,0.00,meteohub,2013-02-03 12:40:00,
2013-02-03 06:45:00,33.8,27.0,30.24,WNW,294,3.0,5.0,76,0.00,,,0.00,meteohub,2013-02-03 12:45:00,
2013-02-03 06:50:00,33.6,26.8,30.25,West,276,1.0,5.0,76,0.00,,,0.00,meteohub,2013-02-03 12:50:00,
2013-02-03 06:55:00,33.4,26.8,30.25,WNW,300,4.0,7.0,76,0.00,,,0.00,meteohub,2013-02-03 12:55:00,
2013-02-03 07:00:00,33.4,26.8,30.25,NW,305,3.0,7.0,76,0.00,,,0.00,meteohub,2013-02-03 13:00:00,
2013-02-03 07:05:00,33.4,26.8,30.25,WNW,295,2.0,7.0,76,0.00,,,0.00,meteohub,2013-02-03 13:05:00,
2013-02-03 07:10:00,33.4,26.8,30.25,NW,311,3.0,7.0,76,0.00,,,0.00,meteohub,2013-02-03 13:10:00,
2013-02-03 07:15:00,33.4,26.8,30.25,NW,304,4.0,7.0,76,0.00,,,0.00,meteohub,2013-02-03 13:15:00,
2013-02-03 07:20:00,33.3,26.6,30.26,WNW,302,3.0,7.0,76,0.00,,,0.00,meteohub,2013-02-03 13:20:00,
2013-02-03 07:25:00,33.3,26.6,30.26,West,281,1.0,7.0,76,0.00,,,0.00,meteohub,2013-02-03 13:25:00,
2013-02-03 07:30:00,33.3,26.6,30.26,WNW,300,2.0,6.0,76,0.00,,,0.00,meteohub,2013-02-03 13:30:00,
2013-02-03 07:35:00,33.3,26.6,30.27,WNW,294,3.0,6.0,76,0.00,,,0.00,meteohub,2013-02-03 13:35:00,
2013-02-03 07:40:00,33.3,26.6,30.26,WNW,294,1.0,6.0,76,0.00,,,0.00,meteohub,2013-02-03 13:40:00,
2013-02-03 07:45:00,33.3,26.6,30.27,WNW,300,2.0,5.0,76,0.00,,,0.00,meteohub,2013-02-03 13:45:00,
2013-02-03 07:50:00,33.4,26.8,30.26,WNW,286,3.0,5.0,76,0.00,,,0.00,meteohub,2013-02-03 13:50:00,
2013-02-03 07:55:00,33.4,26.8,30.27,NW,315,3.0,9.0,76,0.00,,,0.00,meteohub,2013-02-03 13:55:00,
2013-02-03 08:00:00,33.4,26.4,30.27,West,270,3.0,9.0,75,0.00,,,0.00,meteohub,2013-02-03 14:00:00,
2013-02-03 08:05:00,33.6,26.2,30.27,WSW,258,3.0,9.0,74,0.00,,,0.00,meteohub,2013-02-03 14:05:00,
2013-02-03 08:10:00,34.0,26.2,30.27,West,269,7.0,9.0,73,0.00,,,0.00,meteohub,2013-02-03 14:10:00,
2013-02-03 08:15:00,34.2,26.1,30.28,WNW,291,4.0,8.0,72,0.00,,,0.00,meteohub,2013-02-03 14:15:00,
2013-02-03 08:20:00,34.3,26.2,30.28,WNW,287,2.0,7.0,72,0.00,,,0.00,meteohub,2013-02-03 14:20:00,
2013-02-03 08:25:00,34.5,26.1,30.29,NW,306,5.0,9.0,71,0.00,,,0.00,meteohub,2013-02-03 14:25:00,
2013-02-03 08:30:00,34.7,26.2,30.28,West,281,5.0,11.0,71,0.00,,,0.00,meteohub,2013-02-03 14:30:00,
2013-02-03 08:35:00,34.9,26.1,30.29,West,281,7.0,11.0,70,0.00,,,0.00,meteohub,2013-02-03 14:35:00,
2013-02-03 08:40:00,34.9,26.1,30.29,WNW,299,2.0,11.0,70,0.00,,,0.00,meteohub,2013-02-03 14:40:00,
2013-02-03 08:45:00,35.1,25.9,30.28,WNW,303,2.0,10.0,69,0.00,,,0.00,meteohub,2013-02-03 14:45:00,
2013-02-03 08:50:00,35.4,25.9,30.28,NW,309,4.0,10.0,68,0.00,,,0.00,meteohub,2013-02-03 14:50:00,
2013-02-03 08:55:00,35.4,25.5,30.29,NW,305,5.0,10.0,67,0.00,,,0.00,meteohub,2013-02-03 14:55:00,
2013-02-03 09:00:00,35.8,25.9,30.29,NW,311,4.0,10.0,67,0.00,,,0.00,meteohub,2013-02-03 15:00:00,
2013-02-03 09:05:00,36.0,25.3,30.29,WNW,300,5.0,10.0,65,0.00,,,0.00,meteohub,2013-02-03 15:05:00,
2013-02-03 09:10:00,36.0,25.0,30.29,NW,315,11.0,11.0,64,0.00,,,0.00,meteohub,2013-02-03 15:10:00,
2013-02-03 09:15:00,36.0,25.0,30.28,West,279,3.0,10.0,64,0.00,,,0.00,meteohub,2013-02-03 15:15:00,
2013-02-03 09:20:00,36.1,24.8,30.28,NW,325,9.0,13.0,63,0.00,,,0.00,meteohub,2013-02-03 15:20:00,
2013-02-03 09:25:00,36.0,23.9,30.28,NW,317,5.0,13.0,61,0.00,,,0.00,meteohub,2013-02-03 15:25:00,
2013-02-03 09:30:00,36.1,22.8,30.27,NNW,331,8.0,12.0,58,0.00,,,0.00,meteohub,2013-02-03 15:30:00,
2013-02-03 09:35:00,36.5,23.2,30.27,NNE,29,3.0,12.0,58,0.00,,,0.00,meteohub,2013-02-03 15:35:00,
2013-02-03 09:40:00,36.7,23.4,30.27,NNW,348,2.0,12.0,58,0.00,,,0.00,meteohub,2013-02-03 15:40:00,
2013-02-03 09:45:00,36.7,22.5,30.27,NNW,332,3.0,12.0,56,0.00,,,0.00,meteohub,2013-02-03 15:45:00,
2013-02-03 09:50:00,36.7,22.8,30.27,NW,324,4.0,11.0,57,0.00,,,0.00,meteohub,2013-02-03 15:50:00,
2013-02-03 09:55:00,37.0,23.7,30.26,NNE,20,7.0,11.0,58,0.00,,,0.00,meteohub,2013-02-03 15:55:00,
2013-02-03 10:00:00,37.0,22.8,30.26,NNW,346,3.0,11.0,56,0.00,,,0.00,meteohub,2013-02-03 16:00:00,
2013-02-03 10:05:00,37.4,23.2,30.26,NNE,24,4.0,10.0,56,0.00,,,0.00,meteohub,2013-02-03 16:05:00,
2013-02-03 10:10:00,37.8,20.8,30.25,NW,317,6.0,10.0,50,0.00,,,0.00,meteohub,2013-02-03 16:10:00,
2013-02-03 10:15:00,37.8,19.8,30.25,NNE,19,5.0,10.0,48,0.00,,,0.00,meteohub,2013-02-03 16:15:00,
2013-02-03 10:20:00,37.9,19.9,30.25,North,355,1.0,9.0,48,0.00,,,0.00,meteohub,2013-02-03 16:20:00,
2013-02-03 10:25:00,38.1,19.6,30.26,ENE,64,0.0,9.0,47,0.00,,,0.00,meteohub,2013-02-03 16:25:00,
2013-02-03 10:30:00,38.5,19.6,30.25,NNE,26,4.0,9.0,46,0.00,,,0.00,meteohub,2013-02-03 16:30:00,
2013-02-03 10:35:00,38.3,19.4,30.25,NNE,30,2.0,9.0,46,0.00,,,0.00,meteohub,2013-02-03 16:35:00,
2013-02-03 10:40:00,38.7,19.2,30.25,NE,56,2.0,7.0,45,0.00,,,0.00,meteohub,2013-02-03 16:40:00,
2013-02-03 10:45:00,38.8,19.4,30.25,NNW,341,1.0,7.0,45,0.00,,,0.00,meteohub,2013-02-03 16:45:00,
2013-02-03 10:50:00,39.2,19.6,30.25,NE,38,2.0,7.0,45,0.00,,,0.00,meteohub,2013-02-03 16:50:00,
2013-02-03 10:55:00,39.4,19.2,30.25,NNW,334,1.0,5.0,44,0.00,,,0.00,meteohub,2013-02-03 16:55:00,
2013-02-03 11:00:00,39.7,19.6,30.25,SSE,151,3.0,5.0,44,0.00,,,0.00,meteohub,2013-02-03 17:00:00,
2013-02-03 11:05:00,39.7,19.0,30.24,SE,142,3.0,5.0,43,0.00,,,0.00,meteohub,2013-02-03 17:05:00,
2013-02-03 11:10:00,39.7,19.0,30.24,ESE,109,3.0,6.0,43,0.00,,,0.00,meteohub,2013-02-03 17:10:00,
2013-02-03 11:15:00,39.6,19.4,30.23,ENE,70,1.0,7.0,44,0.00,,,0.00,meteohub,2013-02-03 17:15:00,
2013-02-03 11:20:00,39.7,19.6,30.22,ENE,74,1.0,7.0,44,0.00,,,0.00,meteohub,2013-02-03 17:20:00,
2013-02-03 11:25:00,39.9,20.3,30.22,SE,127,3.0,7.0,45,0.00,,,0.00,meteohub,2013-02-03 17:25:00,
2013-02-03 11:30:00,40.1,19.9,30.22,ESE,113,1.0,7.0,44,0.00,,,0.00,meteohub,2013-02-03 17:30:00,
2013-02-03 11:35:00,40.1,19.9,30.22,ENE,64,5.0,7.0,44,0.00,,,0.00,meteohub,2013-02-03 17:35:00,
2013-02-03 11:40:00,40.3,20.1,30.22,ESE,105,4.0,9.0,44,0.00,,,0.00,meteohub,2013-02-03 17:40:00,
2013-02-03 11:45:00,40.5,20.3,30.21,East,89,3.0,9.0,44,0.00,,,0.00,meteohub,2013-02-03 17:45:00,
2013-02-03 11:50:00,40.5,20.8,30.21,ESE,118,2.0,9.0,45,0.00,,,0.00,meteohub,2013-02-03 17:50:00,
2013-02-03 11:55:00,41.0,20.8,30.20,ESE,109,5.0,6.0,44,0.00,,,0.00,meteohub,2013-02-03 17:55:00,
2013-02-03 12:00:00,41.2,20.8,30.19,ESE,106,5.0,6.0,44,0.00,,,0.00,meteohub,2013-02-03 18:00:00,
2013-02-03 12:05:00,41.4,21.0,30.19,ESE,119,4.0,10.0,44,0.00,,,0.00,meteohub,2013-02-03 18:05:00,
2013-02-03 12:10:00,41.4,21.0,30.18,East,92,1.0,10.0,44,0.00,,,0.00,meteohub,2013-02-03 18:10:00,
2013-02-03 12:15:00,41.5,21.7,30.18,ENE,72,6.0,10.0,45,0.00,,,0.00,meteohub,2013-02-03 18:15:00,
2013-02-03 12:20:00,41.7,21.9,30.17,NE,45,3.0,10.0,45,0.00,,,0.00,meteohub,2013-02-03 18:20:00,
2013-02-03 12:25:00,41.9,21.0,30.17,SSE,157,4.0,10.0,43,0.00,,,0.00,meteohub,2013-02-03 18:25:00,
2013-02-03 12:30:00,42.3,21.4,30.18,SSE,165,2.0,10.0,43,0.00,,,0.00,meteohub,2013-02-03 18:30:00,
2013-02-03 12:35:00,42.4,21.6,30.17,SSE,157,1.0,7.0,43,0.00,,,0.00,meteohub,2013-02-03 18:35:00,
2013-02-03 12:40:00,42.8,21.4,30.18,SE,140,7.0,7.0,42,0.00,,,0.00,meteohub,2013-02-03 18:40:00,
2013-02-03 12:45:00,43.0,21.4,30.17,SE,136,3.0,7.0,42,0.00,,,0.00,meteohub,2013-02-03 18:45:00,
2013-02-03 12:50:00,43.0,21.4,30.17,SSE,161,3.0,10.0,42,0.00,,,0.00,meteohub,2013-02-03 18:50:00,
2013-02-03 12:55:00,43.2,21.6,30.16,SSE,155,5.0,10.0,42,0.00,,,0.00,meteohub,2013-02-03 18:55:00,
2013-02-03 13:00:00,43.2,21.6,30.16,ESE,115,3.0,10.0,42,0.00,,,0.00,meteohub,2013-02-03 19:00:00,
2013-02-03 13:05:00,43.5,21.4,30.16,South,169,4.0,10.0,41,0.00,,,0.00,meteohub,2013-02-03 19:05:00,
2013-02-03 13:10:00,43.9,22.3,30.15,SSW,202,7.0,10.0,42,0.00,,,0.00,meteohub,2013-02-03 19:10:00,
2013-02-03 13:15:00,44.1,21.9,30.15,SW,217,5.0,10.0,41,0.00,,,0.00,meteohub,2013-02-03 19:15:00,
2013-02-03 13:20:00,44.6,22.3,30.15,SSE,155,10.0,10.0,41,0.00,,,0.00,meteohub,2013-02-03 19:20:00,
2013-02-03 13:25:00,44.8,22.5,30.14,SSE,149,3.0,10.0,41,0.00,,,0.00,meteohub,2013-02-03 19:25:00,
2013-02-03 13:30:00,45.5,23.2,30.14,WSW,251,6.0,11.0,41,0.00,,,0.00,meteohub,2013-02-03 19:30:00,
2013-02-03 13:35:00,46.0,23.7,30.14,SSW,209,1.0,11.0,41,0.00,,,0.00,meteohub,2013-02-03 19:35:00,
2013-02-03 13:40:00,46.6,24.1,30.13,South,177,7.0,11.0,41,0.00,,,0.00,meteohub,2013-02-03 19:40:00,
2013-02-03 13:45:00,45.9,23.5,30.13,SE,140,5.0,10.0,41,0.00,,,0.00,meteohub,2013-02-03 19:45:00,
2013-02-03 13:50:00,45.7,23.4,30.12,SSE,156,2.0,11.0,41,0.00,,,0.00,meteohub,2013-02-03 19:50:00,
2013-02-03 13:55:00,45.7,22.8,30.12,South,183,5.0,11.0,40,0.00,,,0.00,meteohub,2013-02-03 19:55:00,
2013-02-03 14:00:00,45.9,23.5,30.11,South,186,4.0,15.0,41,0.00,,,0.00,meteohub,2013-02-03 20:00:00,
2013-02-03 14:05:00,46.4,23.9,30.12,SE,136,2.0,15.0,41,0.00,,,0.00,meteohub,2013-02-03 20:05:00,
2013-02-03 14:10:00,46.8,23.7,30.11,SSE,166,3.0,15.0,40,0.00,,,0.00,meteohub,2013-02-03 20:10:00,
2013-02-03 14:15:00,46.9,23.2,30.11,South,169,4.0,12.0,39,0.00,,,0.00,meteohub,2013-02-03 20:15:00,
2013-02-03 14:20:00,46.9,23.9,30.10,SSE,164,7.0,12.0,40,0.00,,,0.00,meteohub,2013-02-03 20:20:00,
2013-02-03 14:25:00,46.8,23.2,30.11,SSE,164,6.0,12.0,39,0.00,,,0.00,meteohub,2013-02-03 20:25:00,
2013-02-03 14:30:00,46.8,23.2,30.10,South,188,4.0,13.0,39,0.00,,,0.00,meteohub,2013-02-03 20:30:00,
2013-02-03 14:35:00,46.9,23.2,30.09,SSE,159,3.0,13.0,39,0.00,,,0.00,meteohub,2013-02-03 20:35:00,
2013-02-03 14:40:00,47.1,23.4,30.09,SSE,160,4.0,13.0,39,0.00,,,0.00,meteohub,2013-02-03 20:40:00,
2013-02-03 14:45:00,47.5,23.2,30.09,SSE,166,3.0,12.0,38,0.00,,,0.00,meteohub,2013-02-03 20:45:00,
2013-02-03 14:50:00,47.8,23.5,30.08,SSW,211,8.0,12.0,38,0.00,,,0.00,meteohub,2013-02-03 20:50:00,
2013-02-03 14:55:00,48.0,23.5,30.07,SSW,195,3.0,12.0,38,0.00,,,0.00,meteohub,2013-02-03 20:55:00,
2013-02-03 15:00:00,48.0,24.3,30.07,SW,215,6.0,12.0,39,0.00,,,0.00,meteohub,2013-02-03 21:00:00,
2013-02-03 15:05:00,48.4,23.9,30.07,South,181,5.0,12.0,38,0.00,,,0.00,meteohub,2013-02-03 21:05:00,
2013-02-03 15:10:00,48.6,24.1,30.07,SSE,165,8.0,11.0,38,0.00,,,0.00,meteohub,2013-02-03 21:10:00,
2013-02-03 15:15:00,48.4,24.6,30.07,South,175,6.0,11.0,39,0.00,,,0.00,meteohub,2013-02-03 21:15:00,
2013-02-03 15:20:00,48.4,25.2,30.06,SSE,153,8.0,11.0,40,0.00,,,0.00,meteohub,2013-02-03 21:20:00,
2013-02-03 15:25:00,48.6,25.3,30.06,SSW,200,7.0,11.0,40,0.00,,,0.00,meteohub,2013-02-03 21:25:00,
2013-02-03 15:30:00,48.6,25.3,30.06,SSE,163,5.0,11.0,40,0.00,,,0.00,meteohub,2013-02-03 21:30:00,
2013-02-03 15:35:00,48.7,25.5,30.05,SW,223,5.0,11.0,40,0.00,,,0.00,meteohub,2013-02-03 21:35:00,
2013-02-03 15:40:00,48.9,26.2,30.05,SE,141,7.0,11.0,41,0.00,,,0.00,meteohub,2013-02-03 21:40:00,
2013-02-03 15:45:00,48.7,26.6,30.05,SSW,192,8.0,11.0,42,0.00,,,0.00,meteohub,2013-02-03 21:45:00,
2013-02-03 15:50:00,48.9,26.2,30.04,SSW,195,7.0,12.0,41,0.00,,,0.00,meteohub,2013-02-03 21:50:00,
2013-02-03 15:55:00,49.3,26.6,30.04,SW,218,10.0,12.0,41,0.00,,,0.00,meteohub,2013-02-03 21:55:00,
2013-02-03 16:00:00,49.3,27.1,30.04,South,186,10.0,12.0,42,0.00,,,0.00,meteohub,2013-02-03 22:00:00,
2013-02-03 16:05:00,49.5,27.3,30.03,South,189,6.0,13.0,42,0.00,,,0.00,meteohub,2013-02-03 22:05:00,
2013-02-03 16:10:00,49.6,27.0,30.03,SE,139,7.0,13.0,41,0.00,,,0.00,meteohub,2013-02-03 22:10:00,
2013-02-03 16:15:00,49.6,27.0,30.03,SSW,211,13.0,13.0,41,0.00,,,0.00,meteohub,2013-02-03 22:15:00,
2013-02-03 16:20:00,49.6,26.2,30.03,South,184,3.0,-999.0,40,0.00,,,0.00,meteohub,2013-02-03 22:20:00,
2013-02-03 16:25:00,49.8,26.4,30.02,SSW,196,3.0,15.0,40,0.00,,,0.00,meteohub,2013-02-03 22:25:00,
2013-02-03 16:30:00,49.6,26.2,30.01,SSE,165,10.0,15.0,40,0.00,,,0.00,meteohub,2013-02-03 22:30:00,
2013-02-03 16:35:00,49.5,26.8,30.02,SW,224,5.0,15.0,41,0.00,,,0.00,meteohub,2013-02-03 22:35:00,
2013-02-03 16:40:00,49.6,27.0,30.01,SSW,211,4.0,13.0,41,0.00,,,0.00,meteohub,2013-02-03 22:40:00,
2013-02-03 16:45:00,49.6,27.0,30.01,SW,217,8.0,13.0,41,0.00,,,0.00,meteohub,2013-02-03 22:45:00,
2013-02-03 16:50:00,49.5,26.8,30.00,SSW,194,9.0,12.0,41,0.00,,,0.00,meteohub,2013-02-03 22:50:00,
2013-02-03 16:55:00,49.3,27.1,30.00,SE,138,4.0,14.0,42,0.00,,,0.00,meteohub,2013-02-03 22:55:00,
2013-02-03 17:00:00,49.1,27.5,30.00,SE,144,4.0,14.0,43,0.00,,,0.00,meteohub,2013-02-03 23:00:00,
2013-02-03 17:05:00,48.9,28.0,30.00,SSE,163,6.0,14.0,44,0.00,,,0.00,meteohub,2013-02-03 23:05:00,
2013-02-03 17:10:00,48.9,28.6,30.00,SSW,207,6.0,14.0,45,0.00,,,0.00,meteohub,2013-02-03 23:10:00,
2013-02-03 17:15:00,48.7,28.4,30.00,South,182,3.0,14.0,45,0.00,,,0.00,meteohub,2013-02-03 23:15:00,
2013-02-03 17:20:00,48.7,28.4,30.00,SSW,202,5.0,13.0,45,0.00,,,0.00,meteohub,2013-02-03 23:20:00,
2013-02-03 17:26:00,48.6,28.2,29.99,South,175,5.0,13.0,45,0.00,,,0.00,meteohub,2013-02-03 23:26:00,
2013-02-03 17:31:00,48.4,28.6,29.99,SSE,155,5.0,13.0,46,0.00,,,0.00,meteohub,2013-02-03 23:31:00,
2013-02-03 17:36:00,48.0,28.2,29.99,South,171,4.0,11.0,46,0.00,,,0.00,meteohub,2013-02-03 23:36:00,
2013-02-03 17:41:00,48.0,28.2,29.99,SSE,168,4.0,11.0,46,0.00,,,0.00,meteohub,2013-02-03 23:41:00,
2013-02-03 17:46:00,47.8,28.0,29.99,South,169,4.0,9.0,46,0.00,,,0.00,meteohub,2013-02-03 23:46:00,
2013-02-03 17:51:00,47.7,28.4,29.98,SSE,164,4.0,9.0,47,0.00,,,0.00,meteohub,2013-02-03 23:51:00,
2013-02-03 17:56:00,47.7,28.4,29.98,SSE,154,3.0,9.0,47,0.00,,,0.00,meteohub,2013-02-03 23:56:00,
2013-02-03 18:01:00,47.5,28.2,29.98,SSE,155,3.0,9.0,47,0.00,,,0.00,meteohub,2013-02-04 00:01:00,
2013-02-03 18:05:00,47.5,28.8,29.98,South,170,4.0,9.0,48,0.00,,,0.00,meteohub,2013-02-04 00:05:00,
2013-02-03 18:10:00,47.1,28.4,29.97,South,186,4.0,9.0,48,0.00,,,0.00,meteohub,2013-02-04 00:10:00,
2013-02-03 18:16:00,47.1,28.4,29.98,South,182,4.0,9.0,48,0.00,,,0.00,meteohub,2013-02-04 00:16:00,
2013-02-03 18:21:00,46.9,28.2,29.98,SSE,150,3.0,7.0,48,0.00,,,0.00,meteohub,2013-02-04 00:21:00,
2013-02-03 18:26:00,46.9,28.8,29.98,SSE,150,3.0,7.0,49,0.00,,,0.00,meteohub,2013-02-04 00:26:00,
2013-02-03 18:31:00,46.8,28.6,29.98,South,188,3.0,7.0,49,0.00,,,0.00,meteohub,2013-02-04 00:31:00,
2013-02-03 18:36:00,46.6,28.9,29.98,SSW,200,5.0,11.0,50,0.00,,,0.00,meteohub,2013-02-04 00:36:00,
2013-02-03 18:41:00,46.6,28.9,29.97,SSE,164,7.0,11.0,50,0.00,,,0.00,meteohub,2013-02-04 00:41:00,
2013-02-03 18:46:00,46.2,28.6,29.97,SSE,166,5.0,11.0,50,0.00,,,0.00,meteohub,2013-02-04 00:46:00,
2013-02-03 18:51:00,46.2,29.1,29.97,South,180,2.0,11.0,51,0.00,,,0.00,meteohub,2013-02-04 00:51:00,
2013-02-03 18:56:00,46.0,28.9,29.97,SSE,159,8.0,11.0,51,0.00,,,0.00,meteohub,2013-02-04 00:56:00,
2013-02-03 19:01:00,46.0,29.5,29.96,SSE,153,4.0,11.0,52,0.00,,,0.00,meteohub,2013-02-04 01:01:00,
2013-02-03 19:06:00,45.7,29.1,29.96,South,171,4.0,9.0,52,0.00,,,0.00,meteohub,2013-02-04 01:06:00,
2013-02-03 19:11:00,45.5,29.3,29.96,South,180,5.0,9.0,53,0.00,,,0.00,meteohub,2013-02-04 01:11:00,
2013-02-03 19:16:00,45.3,29.1,29.96,South,169,3.0,10.0,53,0.00,,,0.00,meteohub,2013-02-04 01:16:00,
2013-02-03 19:21:00,45.3,29.1,29.95,SSE,160,6.0,10.0,53,0.00,,,0.00,meteohub,2013-02-04 01:21:00,
2013-02-03 19:26:00,45.3,29.1,29.95,South,171,6.0,11.0,53,0.00,,,0.00,meteohub,2013-02-04 01:26:00,
2013-02-03 19:31:00,45.3,29.1,29.95,SE,146,4.0,11.0,53,0.00,,,0.00,meteohub,2013-02-04 01:31:00,
2013-02-03 19:36:00,45.1,29.5,29.94,SSE,162,4.0,10.0,54,0.00,,,0.00,meteohub,2013-02-04 01:36:00,
2013-02-03 19:41:00,45.1,29.5,29.94,SE,143,3.0,10.0,54,0.00,,,0.00,meteohub,2013-02-04 01:41:00,
2013-02-03 19:46:00,45.0,29.3,29.94,SE,132,4.0,11.0,54,0.00,,,0.00,meteohub,2013-02-04 01:46:00,
2013-02-03 19:51:00,45.0,29.3,29.94,South,178,3.0,11.0,54,0.00,,,0.00,meteohub,2013-02-04 01:51:00,
2013-02-03 19:56:00,45.0,29.3,29.94,SSE,163,5.0,11.0,54,0.00,,,0.00,meteohub,2013-02-04 01:56:00,
2013-02-03 20:01:00,44.8,29.1,29.94,SSE,168,5.0,10.0,54,0.00,,,0.00,meteohub,2013-02-04 02:01:00,
2013-02-03 20:06:00,44.8,29.7,29.94,South,173,4.0,13.0,55,0.00,,,0.00,meteohub,2013-02-04 02:06:00,
2013-02-03 20:11:00,44.8,29.7,29.94,SSE,163,6.0,13.0,55,0.00,,,0.00,meteohub,2013-02-04 02:11:00,
2013-02-03 20:16:00,44.8,29.7,29.93,South,171,5.0,13.0,55,0.00,,,0.00,meteohub,2013-02-04 02:16:00,
2013-02-03 20:21:00,44.8,29.7,29.92,SSE,166,7.0,12.0,55,0.00,,,0.00,meteohub,2013-02-04 02:21:00,
2013-02-03 20:26:00,44.6,29.5,29.92,SSE,163,3.0,12.0,55,0.00,,,0.00,meteohub,2013-02-04 02:26:00,
2013-02-03 20:31:00,44.6,29.5,29.92,SE,142,6.0,13.0,55,0.00,,,0.00,meteohub,2013-02-04 02:31:00,
2013-02-03 20:36:00,44.6,29.5,29.92,SE,135,6.0,13.0,55,0.00,,,0.00,meteohub,2013-02-04 02:36:00,
2013-02-03 20:41:00,44.4,29.3,29.92,SE,146,3.0,13.0,55,0.00,,,0.00,meteohub,2013-02-04 02:41:00,
2013-02-03 20:46:00,44.4,29.7,29.91,SSW,200,5.0,12.0,56,0.00,,,0.00,meteohub,2013-02-04 02:46:00,
2013-02-03 20:51:00,44.4,29.7,29.91,SSE,153,5.0,11.0,56,0.00,,,0.00,meteohub,2013-02-04 02:51:00,
2013-02-03 20:56:00,44.2,29.5,29.91,South,175,4.0,12.0,56,0.00,,,0.00,meteohub,2013-02-04 02:56:00,
2013-02-03 21:01:00,44.4,29.7,29.91,South,170,5.0,12.0,56,0.00,,,0.00,meteohub,2013-02-04 03:01:00,
2013-02-03 21:06:00,44.6,30.7,29.91,SSE,151,5.0,12.0,58,0.00,,,0.00,meteohub,2013-02-04 03:06:00,
2013-02-03 21:11:00,44.8,29.7,29.90,South,169,3.0,12.0,55,0.00,,,0.00,meteohub,2013-02-04 03:11:00,
2013-02-03 21:16:00,44.8,29.7,29.90,SSW,211,5.0,12.0,55,0.00,,,0.00,meteohub,2013-02-04 03:16:00,
2013-02-03 21:21:00,44.8,29.7,29.90,SSW,205,6.0,14.0,55,0.00,,,0.00,meteohub,2013-02-04 03:21:00,
2013-02-03 21:26:00,44.8,29.7,29.90,South,184,4.0,15.0,55,0.00,,,0.00,meteohub,2013-02-04 03:26:00,
2013-02-03 21:31:00,44.8,29.7,29.90,South,176,6.0,15.0,55,0.00,,,0.00,meteohub,2013-02-04 03:31:00,
2013-02-03 21:36:00,44.8,29.7,29.90,SSW,193,9.0,15.0,55,0.00,,,0.00,meteohub,2013-02-04 03:36:00,
2013-02-03 21:41:00,45.0,29.3,29.89,South,190,4.0,13.0,54,0.00,,,0.00,meteohub,2013-02-04 03:41:00,
2013-02-03 21:46:00,45.0,29.3,29.89,SSE,159,7.0,13.0,54,0.00,,,0.00,meteohub,2013-02-04 03:46:00,
2013-02-03 21:51:00,45.0,29.3,29.88,SSE,168,5.0,15.0,54,0.00,,,0.00,meteohub,2013-02-04 03:51:00,
2013-02-03 21:56:00,45.1,29.5,29.88,South,189,5.0,15.0,54,0.00,,,0.00,meteohub,2013-02-04 03:56:00,
2013-02-03 22:01:00,45.1,29.5,29.88,SSE,151,7.0,15.0,54,0.00,,,0.00,meteohub,2013-02-04 04:01:00,
2013-02-03 22:06:00,45.1,29.5,29.88,ESE,112,4.0,13.0,54,0.00,,,0.00,meteohub,2013-02-04 04:06:00,
2013-02-03 22:11:00,45.1,29.5,29.88,SW,221,3.0,11.0,54,0.00,,,0.00,meteohub,2013-02-04 04:11:00,
2013-02-03 22:16:00,45.1,29.5,29.88,SSE,160,5.0,11.0,54,0.00,,,0.00,meteohub,2013-02-04 04:16:00,
2013-02-03 22:21:00,45.1,29.5,29.87,SSE,155,6.0,11.0,54,0.00,,,0.00,meteohub,2013-02-04 04:21:00,
2013-02-03 22:26:00,45.1,29.5,29.87,SSE,161,6.0,15.0,54,0.00,,,0.00,meteohub,2013-02-04 04:26:00,
2013-02-03 22:31:00,45.1,29.5,29.86,SSE,149,3.0,15.0,54,0.00,,,0.00,meteohub,2013-02-04 04:31:00,
2013-02-03 22:36:00,45.1,28.9,29.86,SSE,161,4.0,12.0,53,0.00,,,0.00,meteohub,2013-02-04 04:36:00,
2013-02-03 22:41:00,45.1,28.9,29.86,SSW,201,4.0,12.0,53,0.00,,,0.00,meteohub,2013-02-04 04:41:00,
2013-02-03 22:46:00,45.1,29.5,29.86,SSE,167,7.0,12.0,54,0.00,,,0.00,meteohub,2013-02-04 04:46:00,
2013-02-03 22:51:00,45.1,28.9,29.85,South,171,3.0,11.0,53,0.00,,,0.00,meteohub,2013-02-04 04:51:00,
2013-02-03 22:56:00,45.1,28.9,29.85,SE,145,5.0,11.0,53,0.00,,,0.00,meteohub,2013-02-04 04:56:00,
2013-02-03 23:00:00,45.1,28.9,29.85,SE,134,3.0,11.0,53,0.00,,,0.00,meteohub,2013-02-04 05:00:00,
2013-02-03 23:02:00,45.3,29.1,29.85,SSE,159,2.0,11.0,53,0.00,,,0.00,meteohub,2013-02-04 05:02:00,
2013-02-03 23:04:00,45.1,28.9,29.85,South,174,5.0,11.0,53,0.00,,,0.00,meteohub,2013-02-04 05:04:00,
2013-02-03 23:09:00,45.5,29.3,29.85,South,178,5.0,10.0,53,0.00,,,0.00,meteohub,2013-02-04 05:09:00,
2013-02-03 23:14:00,45.5,28.9,29.84,SSE,167,4.0,10.0,52,0.00,,,0.00,meteohub,2013-02-04 05:14:00,
2013-02-03 23:19:00,45.7,29.1,29.84,South,188,3.0,9.0,52,0.00,,,0.00,meteohub,2013-02-04 05:19:00,
2013-02-03 23:24:00,45.9,29.3,29.84,SW,227,5.0,9.0,52,0.00,,,0.00,meteohub,2013-02-04 05:24:00,
2013-02-03 23:29:00,46.0,28.9,29.84,South,172,5.0,9.0,51,0.00,,,0.00,meteohub,2013-02-04 05:29:00,
2013-02-03 23:34:00,46.4,29.3,29.83,South,184,5.0,9.0,51,0.00,,,0.00,meteohub,2013-02-04 05:34:00,
2013-02-03 23:39:00,46.9,29.3,29.84,South,190,7.0,18.0,50,0.00,,,0.00,meteohub,2013-02-04 05:39:00,
2013-02-03 23:44:00,47.3,29.1,29.83,South,180,7.0,18.0,49,0.00,,,0.00,meteohub,2013-02-04 05:44:00,
2013-02-03 23:49:00,47.7,29.5,29.83,South,179,5.0,18.0,49,0.00,,,0.00,meteohub,2013-02-04 05:49:00,
2013-02-03 23:54:00,47.8,29.1,29.83,SE,138,7.0,14.0,48,0.00,,,0.00,meteohub,2013-02-04 05:54:00,
2013-02-03 23:59:00,48.0,29.3,29.82,SSW,202,10.0,14.0,48,0.00,,,0.00,meteohub,2013-02-04 05:59:00,